This demonstration page uses our WeatherBlox Daily Observations layout. Learn more.

Left ArrowRight Arrow

36.17497, -115.13722

Hourly Observations for June 5, 2019

Temp ( °F °C ) Dew Point ( °F °C ) Humidity (%) Winds ( mph kmh ) Pressure ( in mb ) Visibility ( mi km ) Precip ( " mm )
12:53 am 00:53 Clear 83 28.3 37 2.8 19 19 NNW 7 11 29.80 1009 10 16 0.00 0.00
1:53 am 01:53 Clear 81 27.2 38 3.3 21 21 NNW 7 11 29.81 1009 10 16 0.00 0.00
2:53 am 02:53 Clear 83 28.3 37 2.8 19 19 N 10 17 29.80 1009 10 16 0.00 0.00
3:53 am 03:53 Clear 83 28.3 38 3.3 20 20 N 8 13 29.81 1010 10 16 0.00 0.00
4:53 am 04:53 Clear 78 25.6 39 3.9 25 25 S 6 9 29.83 1010 10 16 0.00 0.00
5:53 am 05:53 Sunny 77 25 40 4.4 26 26 NW 5 7 29.85 1011 10 16 0.00 0.00
6:53 am 06:53 Sunny 80 26.7 41 5 25 25 Calm 29.86 1011 10 16 0.00 0.00
7:53 am 07:53 Sunny 84 28.9 42 5.6 23 23 Calm 29.88 1012 10 16 0.00 0.00
8:53 am 08:53 Sunny 88 31.1 42 5.6 20 20 ENE 5 7 29.88 1012 10 16 0.00 0.00
9:53 am 09:53 Sunny 90 32.2 43 6.1 19 19 NE 5 7 29.88 1012 10 16 0.00 0.00
10:53 am 10:53 Sunny 92 33.3 43 6.1 18 18 E 6 9 29.88 1012 10 16 0.00 0.00
11:53 am 11:53 Sunny 95 35 42 5.6 16 16 ESE 5 7 29.86 1011 10 16 0.00 0.00
12:53 pm 12:53 Sunny 96 35.6 40 4.4 14 14 S 8 13 29.84 1011 10 16 0.00 0.00
1:53 pm 13:53 Sunny 97 36.1 38 3.3 13 13 SSW 8 13 29.82 1010 10 16 0.00 0.00
2:53 pm 14:53 Sunny 99 37.2 39 3.9 12 12 Calm 29.80 1009 10 16 0.00 0.00
3:53 pm 15:53 Sunny 100 37.8 39 3.9 12 12 VRB 7 11 29.77 1008 10 16 0.00 0.00
4:53 pm 16:53 Sunny 99 37.2 40 4.4 13 13 WNW 3 6 29.75 1008 10 16 0.00 0.00
5:53 pm 17:53 Sunny 99 37.2 39 3.9 12 12 WSW 7 11 29.74 1007 10 16 0.00 0.00
6:53 pm 18:53 Sunny 98 36.7 38 3.3 12 12 WSW 6 9 29.74 1007 10 16 0.00 0.00
7:53 pm 19:53 Sunny 98 36.7 38 3.3 12 12 SW 7 11 29.73 1007 10 16 0.00 0.00
8:53 pm 20:53 Clear 96 35.6 39 3.9 14 14 S 3 6 29.74 1007 10 16 0.00 0.00
9:53 pm 21:53 Clear 93 33.9 40 4.4 16 16 SSE 6 9 29.75 1007 10 16 0.00 0.00
10:53 pm 22:53 Clear 91 32.8 40 4.4 17 17 SSE 3 6 29.75 1007 10 16 0.00 0.00
11:53 pm 23:53 Clear 88 31.1 43 6.1 21 21 NNW 3 6 29.74 1007 10 16 0.00 0.00

Powered by AerisWeather